OpenBCM V1.08-5-g2f4a (Linux)

Packet Radio Mailbox

IZ3LSV

[San Dona' di P. JN]

 Login: GUEST





  
LU9DCE > KEP      31.12.19 18:02l 244 Lines 12076 Bytes #999 (0) @ WW
BID : 6250_LU9DCE
Read: GUEST
Subj: TLE 31 12
Path: IZ3LSV<IW0QNL<JH4XSY<N3HYM<N7HPX<LU9DCE
Sent: 191231/1600Z 6250@LU9DCE.TOR.BA.ARG.SOAM LinBPQ6.0.19

            __    _  _  ___  ____   ___  ____    ____  ____  ____
           (  )  / )( \/ _ \(    \ / __)(  __)  (  _ \(  _ \/ ___)
           / (_/\) \/ (\__  )) D (( (__  ) _)    ) _ ( ) _ (\___ \
           \____/\____/(___/(____/ \___)(____)  (____/(____/(____/
               ESTACION DE PACKET RADIO - BUENOS AIRES (GF05OM)
                   BOLETINES INFORMATIVOS PROGRAMADOS (BIP)
                      LINUX - HELLOCODELINUX@GMAIL.COM
+----------------------------------------------------------------------------+
OSCAR 7
1  7530U 74089B   19364.89967385 -.00000033 +00000-0 +76417-4 0  9997
2  7530 101.7754 330.7628 0012191 332.0402 084.5318 12.53641384064746
OSCAR 11 (UoSAT 2)
1 14781U 84021B   19365.49067035  .00000072  00000-0  14984-4 0  9993
2 14781  97.5983  20.8004 0009453  44.2555 315.9414 14.83131581927789
OSCAR 19 (LUSAT)
1 20442U 90005G   19365.46339626  .00000007  00000-0  18818-4 0  9996
2 20442  98.6725 307.3348 0010773 295.3976  64.6092 14.32941549564417
EYESAT A
1 22825U 93061C   19365.47565326 -.00000009  00000-0  14635-4 0  9993
2 22825  98.9176 358.7248 0008979 143.3642 216.8155 14.30074652369934
ITAMSAT
1 22826U 93061D   19365.50160976 -.00000010  00000-0  14099-4 0  9996
2 22826  98.9116 358.7186 0009670 132.9501 227.2494 14.30409240370149
RADIO ROSTO
1 23439U 94085A   19364.90102840 -.00000057 +00000-0 -41766-3 0  9995
2 23439 064.8134 160.4436 0146023 074.9836 286.7197 11.27569339029902
JAS 2
1 24278U 96046B   19364.83731675 -.00000008 +00000-0 +25202-4 0  9995
2 24278 098.5644 132.0589 0351314 094.1895 269.9468 13.53094945153941
TECHSAT 1B
1 25397U 98043D   19364.85925111 -.00000011 +00000-0 +14339-4 0  9992
2 25397 098.7111 302.8155 0001458 145.4387 214.6886 14.23676824115420
ISS (ZARYA)
1 25544U 98067A   19365.62109818 -.00000196  00000-0  46169-5 0  9997
2 25544  51.6443 102.5677 0005157  88.3081  52.3104 15.49523379205885
PCSAT
1 26931U 01043C   19364.90991098 -.00000052 +00000-0 +11900-4 0  9990
2 26931 067.0498 219.9167 0006884 263.5307 096.5011 14.30563134952822
SAUDISAT 1C
1 27607U 02058C   19364.87078513 -.00000040 +00000-0 +15174-4 0  9996
2 27607 064.5535 172.8542 0068132 217.8264 141.8041 14.75598469915700
CUTE-1
1 27844U 03031E   19364.74330004 +.00000027 +00000-0 +31883-4 0  9992
2 27844 098.6834 010.0323 0009805 180.8773 179.2389 14.22213381855970
CUBESAT XI 4
1 27848U 03031J   19364.93196811 +.00000013 +00000-0 +25952-4 0  9998
2 27848 098.6907 010.7548 0009481 192.2108 167.8841 14.21803770855859
MOZHAYETS 4
1 27939U 03042A   19365.48764177  .00000043  00000-0  16273-4 0  9997
2 27939  98.0662 137.8237 0013384 162.7837 197.3828 14.66827533869249
CUBESAT XI 5
1 28895U 05043F   19364.61131063  .00000098  00000-0  27673-4 0  9994
2 28895  97.9844 140.9982 0018104  96.5968 263.7296 14.63725009755992
CUTE-1.7+APD II
1 32785U 08021C   19364.85453690 +.00000182 +00000-0 +25208-4 0  9991
2 32785 097.5602 355.4764 0012563 342.3335 017.7444 14.88396503632645
DELFI C3
1 32789U 08021G   19364.68014875 +.00001350 +00000-0 +93172-4 0  9997
2 32789 097.4413 048.2398 0012484 171.3734 188.7711 15.07354993636237
SEEDS
1 32791U 08021J   19364.74395195 +.00000388 +00000-0 +44586-4 0  9999
2 32791 097.5329 001.4898 0012194 312.8021 047.2172 14.90942291633098
YUBELEINY
1 32953U 08025A   19365.46179534  .00000037  00000-0  19437-3 0  9997
2 32953  82.5048  23.0121 0020247  64.5663 295.7507 12.43093325526634
PRISM (HITOMI)
1 33493U 09002B   19365.47390078  .00000466  00000-0  46193-4 0  9998
2 33493  98.1312 293.9272 0013948 254.0187 105.9497 14.96853700594437
KKS-1 (KISEKI)
1 33499U 09002H   19364.84882653 +.00000064 +00000-0 +17408-4 0  9990
2 33499 098.3325 209.6360 0008185 310.8103 049.2395 14.75492130587574
SWISSCUBE
1 35932U 09051B   19364.72403108 +.00000093 +00000-0 +32020-4 0  9998
2 35932 098.5998 176.6217 0006598 290.1886 069.8601 14.56344180545127
BEESAT
1 35933U 09051C   19365.47126032  .00000075  00000-0  27928-4 0  9991
2 35933  98.6010 179.2236 0004877 304.3422  55.7313 14.56426152545388
ITUPSAT 1
1 35935U 09051E   19364.74866262 +.00000059 +00000-0 +24852-4 0  9993
2 35935 098.6119 178.6991 0007182 302.9319 057.1186 14.55578276544985
XIWANG-1 (HOPE-1)
1 36122U 09072B   19364.76351797 -.00000042  00000-0 -24958-6 0  9992
2 36122 100.0809 358.0284 0006920 255.9440 104.0905 13.16352549482541
TISAT 1
1 36799U 10035E   19365.48786394  .00000183  00000-0  24525-4 0  9990
2 36799  98.1756 164.4526 0012751 158.8268 201.3479 14.91237388513948
JUGNU
1 37839U 11058B   19364.90977448 +.00000283 +00000-0 +90231-5 0  9999
2 37839 019.9600 230.9405 0018834 319.1459 148.9840 14.12667852424787
SRMSAT
1 37841U 11058D   19364.87262557 +.00000307 +00000-0 +23653-4 0  9996
2 37841 019.9725 291.9823 0011955 180.2028 221.6574 14.10646864424191
M-CUBED/EXP-1 PRIME
1 37855U 11061F   19364.90648863 +.00000376 +00000-0 +26949-4 0  9994
2 37855 101.7264 000.8721 0172088 217.9611 140.9369 15.05908619445685
HORYU 2
1 38340U 12025D   19364.84719632 +.00000116 +00000-0 +24896-4 0  9992
2 38340 098.3058 049.0456 0010809 217.0504 142.9959 14.75792992399531
STRAND 1
1 39090U 13009E   19364.86758684 +.00000015 +00000-0 +20473-4 0  9995
2 39090 098.4680 207.3727 0010220 071.1403 289.0890 14.35111956358364
SOMP
1 39134U 13015E   19364.72233208 +.00001109 +00000-0 +58885-4 0  9999
2 39134 064.8632 108.3735 0038271 271.5067 088.1677 15.20616013369861
BEESAT 3
1 39135U 13015F   19364.79795146  .00000942  00000-0  55295-4 0  9997
2 39135  64.8658 129.2009 0044008 273.5843  86.0250 15.17820965369857
BEESAT 2
1 39136U 13015G   19364.77769636 +.00000906 +00000-0 +54863-4 0  9991
2 39136 064.8706 133.6781 0030982 280.8387 078.9253 15.17245014369374
CUBEBUG 1
1 39153U 13018D   19365.27560380  .00000170  00000-0  29051-4 0  9998
2 39153  97.9814 102.3528 0015598 285.6178  74.3312 14.80645834360751
ZACUBE
1 39417U 13066B   19364.80824168  .00000181  00000-0  28889-4 0  9999
2 39417  97.5611   7.3271 0060270 113.6822 247.0732 14.81199207329925
TRITON 1
1 39427U 13066M   19365.50250087  .00000103  00000-0  24703-4 0  9996
2 39427  97.7026 331.0610 0112299 258.5665 100.2911 14.67924871327064
GOMX 1
1 39430U 13066Q   19365.45210975  .00000179  00000-0  41477-4 0  9996
2 39430  97.7729 309.3699 0151297 357.6183   2.4275 14.59331917325158
HUMSAT D
1 39433U 13066T   19364.87561843 +.00000382 +00000-0 +42415-4 0  9996
2 39433 097.5298 044.1478 0030871 012.0792 348.1161 14.92339174331006
CUBEBUG 2
1 39440U 13066AA  19365.48130376  .00000131  00000-0  25199-4 0  9997
2 39440  97.6155 352.4946 0080412 167.9551 192.3608 14.75936781328853
FUNCUBE 1
1 39444U 13066AE  19365.51027463  .00000216  00000-0  32726-4 0  9995
2 39444  97.5574  10.1090 0059464 104.5915 256.1903 14.82036129328934
UWE-3
1 39446U 13066AG  19364.74411950  .00000172  00000-0  29370-4 0  9991
2 39446  97.5877 358.9772 0070850 142.6158 218.0014 14.78471146328089
SPROUT
1 39770U 14029E   19365.32271154  .00000401  00000-0  50250-4 0  9992
2 39770  97.8917 107.4596 0009255 157.0390 203.1242 14.87556507303915
UNISAT 6
1 40012U 14033C   19365.51919247  .00000115  00000-0  24415-4 0  9997
2 40012  97.7297 223.3999 0058103 184.5547 175.5141 14.74050363297531
DUCHIFAT 1
1 40021U 14033M   19364.87535113 +.00000441 +00000-0 +50641-4 0  9993
2 40021 097.9339 290.1866 0013947 122.8619 237.3943 14.90774444300620
QB50P1
1 40025U 14033R   19365.52364624  .00000230  00000-0  30369-4 0  9998
2 40025  97.9112 284.9088 0013387 130.7174 229.5208 14.89045939300469
CHUBUSAT 1
1 40300U 14070C   19365.28610807  .00000467  00000-0  23144-4 0  9990
2 40300  97.3087  74.3356 0021328  88.0846 316.3158 15.22305805285778
NUDT-PHONESAT
1 40900U 15049B   19365.50209969  .00001624  00000-0  71042-4 0  9997
2 40900  97.4341  12.9656 0011613 211.6191 304.6263 15.23450573237466
ZDPS 2A
1 40901U 15049C   19365.48448765  .00000804  00000-0  42816-4 0  9990
2 40901  97.4608   8.5218 0011853 239.2745 273.7486 15.18003548236939
ZDPS 2B
1 40902U 15049D   19365.46272043  .00000967  00000-0  50943-4 0  9993
2 40902  97.4569   5.8469 0011979 236.4844 279.9137 15.17917781236902
XW-2A
1 40903U 15049E   19365.42100541  .00001442  00000-0  35208-4 0  9999
2 40903  97.3130  49.0703 0014021 150.2197 335.2105 15.42472455240416
KAITUO 1A
1 40904U 15049F   19365.45561750  .00000340  00000-0  21428-4 0  9991
2 40904  97.4714   4.1883 0013094 248.2523 268.9027 15.15552339236642
OBJECT G
1 40905U 15049G   19365.47817554  .00000520  00000-0  31820-4 0  9997
2 40905  97.4780   1.5653 0014079 243.5200 269.2632 15.14428235236503
XW-2C
1 40906U 15049H   19365.48057054  .00000676  00000-0  38723-4 0  9991
2 40906  97.4719   4.3923 0013349 237.3770 274.6893 15.15878971236651
XW-2D
1 40907U 15049J   19365.49944488  .00000425  00000-0  25521-4 0  9993
2 40907  97.4709   4.0984 0012660 234.2525 280.7009 15.16084682236672
LILACSAT 2
1 40908U 15049K   19365.45527910  .00000183  00000-0  13692-4 0  9994
2 40908  97.4843   2.6398 0014436 244.4257 271.3043 15.13924035236422
XW-2F
1 40910U 15049M   19365.46867873  .00000890  00000-0  47561-4 0  9990
2 40910  97.4648   6.3763 0013340 225.1749 289.9528 15.17623198236704
XW-2B
1 40911U 15049N   19365.47487122  .00000751  00000-0  42494-4 0  9993
2 40911  97.4725   4.7551 0012556 235.1842 277.7291 15.16015758236563
KAITUO 1B
1 40912U 15049P   19365.46527282  .00000865  00000-0  43304-4 0  9992
2 40912  97.4493  10.3184 0014067 203.4058 322.7817 15.19974683237040
TIANWANG 1C (TW-1C)
1 40926U 15051B   19365.40280025  .00011060  00000-0  13777-3 0  9994
2 40926  97.1093  51.5604 0007190  17.9319 105.2919 15.60058659240626
